Regional Weather Roundup
Issued by NWS Upton, NY

Current Version | Previous Version | Text Only | Print | Product List | Glossary Off
Versions: 1 2 3 4 5 6 7 8 9 10 11 12 13 14 15 16 17 18 19 20 21 22 23 24 25 26 27 28 29 30 31 32 33 34 35 36 37 38 39 40 41 42 43 44 45 46 47
000 ASUS41 KOKX 241505 RWROKX REGIONAL WEATHER ROUNDUP NATIONAL WEATHER SERVICE NEW YORK NY 1000 AM EST WED DEC 24 2014 NOTE: "FAIR" INDICATES FEW OR NO CLOUDS BELOW 12,000 FEET WITH NO SIGNIFICANT WEATHER AND/OR OBSTRUCTIONS TO VISIBILITY. NYZ071-072-176-178-NJZ106-104-241600- NEW YORK CITY METRO AREA CITY SKY/WX TMP DP RH WIND PRES REMARKS CENTRAL PARK RAIN 44 43 96 VRB5 29.98F FOG LAGUARDIA APRT LGT RAIN 43 42 97 NE10 29.96F VSB 1/8 KENNEDY INTL LGT RAIN 49 46 90 E13 29.96F FOG NEWARK/LIBERTY LGT RAIN 48 47 96 NE8 29.95F VSB 1/4 BRNX BOT. GARD N/A 43 43 100 E6 29.98R TETERBORO LGT RAIN 44 44 100 NE7 29.95F FOG $$ NYZ177-179-078>081-241600- LONG ISLAND NEW YORK CITY SKY/WX TMP DP RH WIND PRES REMARKS FARMINGDALE CLOUDY 48 47 96 E14 29.96F ISLIP LGT RAIN 48 46 93 E10 29.96S FOG SHIRLEY CLOUDY 48 47 96 VRB6 29.98F FOG WESTHAMPTON FOG 47 46 97 E8G16 29.99F VSB 1/4 MONTAUK POINT N/A 48 47 96 NE5 30.01R $$ NYZ052-065-067-241600- HUDSON VALLEY CITY SKY/WX TMP DP RH WIND PRES REMARKS WHITE PLAINS FOG 45 44 97 E9 29.96S VSB 1/2 NEWBURGH LGT RAIN 43 43 100 SE9 29.96F VSB 1 MONTGOMERY CLOUDY 44 43 96 NE6 29.94F FOG POUGHKEEPSIE CLOUDY 44 43 96 CALM 29.96F FOG ALBANY LGT RAIN 40 38 93 CALM 29.96S FOG $$ NJZ001-105-106-008-010-013-015-019>022-104-241600- NEW JERSEY CITY SKY/WX TMP DP RH WIND PRES REMARKS NEWARK/LIBERTY LGT RAIN 48 47 96 NE8 29.95F VSB 1/4 TETERBORO LGT RAIN 44 44 100 NE7 29.95F FOG CALDWELL CLOUDY 45 44 97 VRB3 29.96F FOG MORRISTOWN DRIZZLE 50 50 100 E7 29.95F FOG SOMERVILLE HVY RAIN 49 46 90 E5 29.91F FOG SUSSEX HVY RAIN 44 44 100 CALM 29.92F FOG ANDOVER NOT AVBL TRENTON LGT RAIN 48 47 96 E9 29.90S FOG MILLVILLE LGT RAIN 54 53 97 SE7 29.88S FOG ATLANTIC CITY CLOUDY 53 52 96 SE6 29.90F WRIGHTSTOWN LGT RAIN 52 52 100 E5 29.87F FOG TOMS RIVER CLOUDY 52 52 100 SE3 29.91F BELMAR CLOUDY 50 46 87 E10 29.91F $$ PAZ047>061-062-071-241600- EASTERN PENNSYLVANIA CITY SKY/WX TMP DP RH WIND PRES REMARKS PHILADELPHIA LGT RAIN 50 48 93 E7 29.88F FOG ALLENTOWN LGT RAIN 47 45 93 NE5 29.89S FOG SCRANTON LGT RAIN 50 45 83 NE7 29.82F $$ CTZ002-004>006-009-010-012-RIZ004-006-007-MAZ004-011-015-241600- SOUTHERN NEW ENGLAND IN CT CITY SKY/WX TMP DP RH WIND PRES REMARKS BRADLEY INTL DRZL/FOG 42 40 92 N7 30.02S VSB 1 HARTFORD FOG 42 41 96 N8 30.02F VSB 3/4 DANBURY FOG 43 40 89 E6 29.99S VSB 3/4 WTRBRY/OXFORD FOG 43 36 75 E7 29.99S VSB 3/4 BRIDGEPORT FOG 44 44 100 NE8 29.99S VSB 1 MERIDEN CLOUDY 42 40 92 N5 30.01F FOG NEW HAVEN CLOUDY 47 43 86 N6 29.99S FOG CHESTER FOG 45 45 100 NE5 30.00S VSB 3/4 GROTON CLOUDY 48 47 96 E6 30.00S WILLIMANTIC CLOUDY 45 42 89 NE3 30.02F IN RI CITY SKY/WX TMP DP RH WIND PRES REMARKS PROVIDENCE FOG 45 44 97 N8 30.03F VSB 1/2 BLOCK ISLAND CLOUDY 46 45 93 E8 30.00S VSB<1/4 WESTERLY CLOUDY 47 47 100 NE6 30.01F IN MA CITY SKY/WX TMP DP RH WIND PRES REMARKS BOSTON DRZL/FOG 43 43 100 N6 30.06S VSB 1/4 WORCESTER FOG 37 37 100 NE10 30.02F VSB<1/4 WCI 30 WESTFIELD CLOUDY 41 39 93 N6 30.03S FOG PROVINCETOWN CLOUDY 48 46 93 E9 30.03F NANTUCKET LGT RAIN 50 50 100 S7 30.01F VSB 1/4 $$ ANZ330-335-338-340-345-350-353-355-241600- COASTAL MARINE OBSERVATIONS STATION/POSITION TIME SKY/WX TEMP WIND PRES VSBY WAVE AIR SEA DIR/SP/G HT/PER (UTC) (F) (DEG/KT/KT) (MB) (MI) (FT/S) NY HARB ENTRANCE 1500 49 46 90/ 14/ 16 1013.5 5/ 7 4S FIRE IS 1500 47 N/A 5/ 8 20S FIRE ISLAND 1400 51 51 1014.4 5/ 7 23SW MTP 1500 N/A 6/ 8 HUDSON CANYON 1500 56 54 130/ 12/ 14 1013.6 5/ 9 EXECUTION ROCKS 1400 43 42 50/ 14/ 17 N/A WESTERN LI SOUND 1500 43 70/ 14/ 16 N/A 2/ 3 CENTRAL LI SOUND 1500 43 44 90/ 10/ 12 N/A 1/ 2 EASTERN LI SOUND NOT AVBL ROBBINS REEF 1500 48 1012.8 $$ >>>>>>>>>>>>>>>>>>>>>>>>>>>> KEY <<<<<<<<<<<<<<<<<<<<<<<<<<< > < > SKY/WX - SKY CONDITION/PRESENT WEATHER < > TMP - TEMPERATURE IN FAHRENHEIT < > DP - DEWPOINT IN FAHRENHEIT < > RH - RELATIVE HUMIDITY IN PERCENT < > WIND - DIRECTION AND SPEED IN MPH < > PRES - MEAN SEA LEVEL PRESSURE IN INCHES OF HG < > WCI - WIND CHILL INDEX < > VSB - VISIBILITY IN MILES < > HX - HEAT INDEX < > TC - TEMPERATURE IN CELSIUS < > VRB - VARIABLE WIND DIRECTION < > < >>>>>>>>>>>>>>>>>>>>>>>>>>>> KEY <<<<<<<<<<<<<<<<<<<<<<<<<<<

USA.gov is the U.S. government's official web portal to all federal, state and local government web resources and services.